Regional Weather Roundup
Issued by NWS Grand Forks, ND

Current Version | Previous Version | Text Only | Print | Product List | Glossary On
Versions: 1 2 3 4 5 6 7 8 9 10 11 12 13 14 15 16 17 18 19 20 21 22 23 24 25 26 27 28 29 30 31 32 33 34 35 36 37 38 39 40 41 42 43 44 45 46 47 48 49 50
000
ASUS43 KFGF 260431
RWRFGF
PRAIRIE TO PINES  WEATHER ROUNDUP
NATIONAL WEATHER SERVICE EASTERN NORTH DAKOTA/GRAND FORKS ND
1100 PM CDT WED MAY 25 2016

 **SATELLITE DATA USED TO AUGMENT SKY COVER AT AUTOMATED STATIONS**
 *****  WEATHER ACROSS EASTERN NORTH DAKOTA  *****

CITY           SKY/WX    TMP DP  RH WIND       PRES   REMARKS
GRAND FORKS    CLOUDY    59  56  89 W12       29.68F
GRAND FRKS AFB CLOUDY    58  58 100 W7        29.69S
GRAND FRKS NWS   N/A     57 N/A N/A W6          N/A
DEVILS LAKE    PTCLDY    56  54  93 NE7       29.73F
FARGO          LGT RAIN  59  54  83 SW16      29.78R
WAHPETON ARPT  CLOUDY    63  57  82 NE3       29.76R
$$

 ***** WEATHER ACROSS CENTRAL AND WESTERN NORTH DAKOTA  *****

CITY           SKY/WX    TMP DP  RH WIND       PRES   REMARKS
BISMARCK       CLOUDY    58  51  78 W10       29.79S
MINOT          CLOUDY    59  54  83 S6        29.74F
JAMESTOWN      LGT RAIN  58  57  97 SE7       29.71F
MINOT AFB      CLOUDY    56  53  88 S1        29.73F
GARRISON         N/A     56  52  86 W3        29.78R
WILLISTON      CLEAR     48  45  89 NW6       29.82R
DICKINSON      PTCLDY    45  40  82 W6        29.82R
HETTINGER      CLEAR     44  39  82 CALM      29.86R
$$

 *****  OTHER AIRPORT OBSERVATIONS IN OUR AREA  *****

CITY           SKY/WX    TMP DP  RH WIND       PRES   REMARKS
WALHALLA       LGT RAIN  55  55 100 N14G21    29.68F
GRAFTON AIRPOR CLOUDY    57  57 100 W9        29.68S FOG
VALLEY CITY AR LGT RAIN  55  55 100 NW12      29.74F
CANDO          CLOUDY    55  55 100 NE7       29.76S
CAVALIER APRT  LGT RAIN  57  57 100 NW12      29.66F
GWINNER        MOCLDY    55  54  94 CALM      29.77S
SHEYENNE NWR     N/A     57  55  92 NW9       29.95S
ROLLA          CLOUDY    54  54 100 NE7       29.77F
 ***** THE ABOVE OBSERVATIONS ARE NON NWS ARE NOT QUALITY
       CONTROLLED AND MAY MIS-REPORT RAIN FOR SNOW...
$$

  *****  WEATHER ACROSS NORTHERN MINNESOTA  *****

CITY           SKY/WX    TMP DP  RH WIND       PRES   REMARKS
FLAG ISLAND    RAIN      55  55 100 E13G21    29.74F
WARROAD        CLOUDY    59  55  88 SE17G23   29.72S
ROSEAU         CLOUDY    59  54  82 SE14      29.69S
HALLOCK        CLOUDY    61  59  94 E3        29.63F
THF RVR FALLS  CLOUDY    61  55  82 S16       29.72R
BAUDETTE       CLOUDY    59  55  87 SE15G22   29.75F
WASKISH        PTCLDY    59  55  88 SE9       29.77S
CROOKSTON      CLOUDY    61  57  88 W10       29.73R
STEPHEN NDAWN    N/A     61  61 100 SW7         N/A
GREENBUSH NDAW   N/A     61  61 100 S12         N/A
$$
  *****  WEATHER ACROSS CENTRAL AND WEST MINNESOTA  *****

CITY           SKY/WX    TMP DP  RH WIND       PRES   REMARKS
FOSSTON        CLEAR     57  55  94 S8        29.76R
BEMIDJI        CLOUDY    58  55  88 SE12G17   29.78S
PARK RAPIDS    MOCLDY    59  56  89 SE13      29.79R
ELBOW LAKE     FAIR      65  60  86 SE6       29.76S
WADENA         CLOUDY    59  57  94 E7        29.78S
DETROIT LAKES  CLOUDY    61  59  94 SE8       29.77S
MOORHEAD       TSTM      63  61  94 W13       29.79R
FERGUS FALLS   MOCLDY    63  63 100 E3        29.72S
MORRIS MN      CLOUDY    70  46  43 S24G33    29.75F
STAPLES        PTCLDY    55  55 100 SE5       29.80S
$$
  *****  WEATHER ELSEWHERE ACROSS MINNESOTA  *****

CITY           SKY/WX    TMP DP  RH WIND       PRES   REMARKS
DULUTH         CLOUDY    47  45  93 E12       29.86F
INTRNTL FALLS  CLOUDY    59  51  75 SE8       29.80F
ELY            PTCLDY    54  46  76 SE6       29.86F
CLOQUET        CLOUDY    46  45  93 E9        29.86S FOG
WHEATON        CLOUDY    68  57  68 S3        29.76S
BRAINERD       CLOUDY    55  54  96 SE7       29.83S
HIBBING        PTCLDY    50  49  96 SE7       29.84F
ALEXANDRIA     CLOUDY    64  57  78 SE6       29.78F
SAINT CLOUD    PTCLDY    61  60  97 E5        29.82S
MINNEAPOLIS    PTCLDY    68  62  81 E7        29.83R
$$

  *****  WEATHER ACROSS SOUTH DAKOTA  *****

CITY           SKY/WX    TMP DP  RH WIND       PRES   REMARKS
SIOUX FALLS    CLOUDY    63  55  75 SE3       29.80F
BROOKINGS      CLOUDY    62  53  72 E8        29.80F
WATERTOWN      CLOUDY    62  50  64 S13       29.78F
HURON          PTCLDY    58  55  90 W6        29.80R
SISSETON         N/A     67  53  61 W9        29.74R
ABERDEEN       CLEAR     58  53  84 SW5       29.78R
MITCHELL       PTCLDY    64  60  87 NE5       29.81R
PIERRE         CLEAR     58  48  69 NW6       29.82R
MOBRIDGE       CLEAR     55  49  80 W6        29.79R
RAPID CITY     MOCLDY    50  47  89 N8        29.90S
$$

  *****  SOME WEATHER IN NEARBY STATES *****

CITY           SKY/WX    TMP DP  RH WIND       PRES   REMARKS
GLASGOW MT     PTCLDY    52  44  74 E5        29.83R
GREAT FALLS MT PTCLDY    48  42  80 W5        29.93R
CHEYENNE WY    PTCLDY    52  34  50 N5        30.03R
SCOTTSBLUFF NE CLOUDY    56  46  69 W3        29.97R
OMAHA NE       PTCLDY    71  66  84 S3        29.83S
DES MOINES IA  CLOUDY    75  65  70 S6        29.85S
DAVENPORT IA   MOCLDY    71  59  65 S3        29.91S
CHICAGO IL     CLOUDY    67  65  93 E8        29.95R
EAU CLAIRE WI  FOG       59  59 100 S3        29.86R VSB 1/4
LA CROSSE WI   CLEAR     67  64  90 SE5       29.84R
$$

  *****  SOME NATIONAL WEATHER *****

CITY           SKY/WX    TMP DP  RH WIND       PRES   REMARKS
LA GUARDIA NY  PTCLDY    82  53  36 W10       30.04S
RALEIGH NC     MOCLDY    67  59  75 CALM      30.17S
ATLANTA GA     MOCLDY    75  57  53 S3        30.19F
NEW ORLEANS LA PTCLDY    78  71  79 SE9       30.13S
OKLAHOMA CITY  MOCLDY    77  74  90 S16       29.88R
ALBUQUERQUE NM PTCLDY    71  13  10 SW7       29.98R
SALT LAKE CITY MOCLDY    58  43  57 W7        30.02R
LOS ANGELES CA PTCLDY    60  52  74 W12       30.07S
BOISE ID       CLEAR     64  40  41 CALM      29.97R
SEATTLE WA     MOCLDY    56  46  69 SW10      30.18F
$$

*** WEATHER ACROSS MANITOBA...SASKATCHEWAN AND ONTARIO ***
                ***ONTARIO***

CITY           SKY/WX    TMP DP  RH WIND       PRES   REMARKS
GERALDTON      MOCLDY    59  45  58 E7        30.02F
THUNDER BAY    CLOUDY    52  45  76 E8        29.97F
SIOUX LOOKOUT  CLOUDY    57  50  77 VRB2      29.90S
TORONTO        CLOUDY    70  55  60 NW5       30.04S
BIG TROUT LK   PTCLDY    57  48  72 SE8       29.97S
PICKLE LAKE    NOT AVBL
DRYDEN         CLOUDY    59  54  82 E5        29.87F
KENORA         LGT RAIN  57  57 100 E9G17     29.85  FOG
$$
                *** MANITOBA***

CITY           SKY/WX    TMP DP  RH WIND       PRES   REMARKS
BRANDON        LGT RAIN  55  55 100 E12       29.80S
DAUPHIN        LGT RAIN  57  55  94 NE2       29.85S
ISLAND LAKE    PTCLDY    57  52  82 SE2       29.88
PILOT MOUND      N/A     55  54  94 NE9         N/A
THE PAS        PTCLDY    55  45  67 SE2       29.86F
THOMPSON       NOT AVBL
WINNIPEG       LGT RAIN  57  55  94 NE18      29.75F
LYNN LAKE      MOCLDY    57  46  67 VRB2      29.85S
CHURCHILL      RAIN      36  34  93 SE17      29.93F
GILLAM         CLEAR     57  46  67 E5        29.88F
$$
                ***SASKATCHEWAN***

CITY           SKY/WX    TMP DP  RH WIND       PRES   REMARKS
ESTEVAN        LGT RAIN  54  52  94 E14       29.79R
KINDERSLEY     PTCLDY    52  45  76 SE7       29.90R
LLOYDMINSTER   PTCLDY    55  46  71 S8        29.90R
PRINCE ALBERT  PTCLDY    52  46  82 CALM      29.87S
REGINA         LGT RAIN  54  52  94 NE10G18   29.85R
YORKTON        MOCLDY    54  54 100 N7        29.86F FOG
N. BATTLEFORD  CLEAR     48  45  87 N2        29.91S
LA RONGE       PTCLDY    57  48  72 S5        29.87
SASKATOON      MOCLDY    57  48  72 N6        29.88S
SWIFT CURRENT  CLOUDY    52  48  87 E8        29.88R
$$
NOTE: THESE ARE AUTOMATED STATIONS WITH LIMITED QUALITY CONTROL
      "FAIR" INDICATES FEW OR NO CLOUDS BELOW 12,000 FEET WITH NO
      SIGNIFICANT WEATHER AND/OR OBSTRUCTIONS TO VISIBILITY.
      SKY/WX - SKY CONDITION AND SIGNIFICANT WEATHER.
      TMP - AIR TEMPERATURE.    DP   - DEWPOINT TEMPERATURE.
      RH  - RELATIVE HUMIDITY.  PRES - PRESSURE.
      HX  - HEAT INDEX.         WCI  - WIND CHILL INDEX.
$




USA.gov is the U.S. government's official web portal to all federal, state and local government web resources and services.